Tracking 33747 objects as of 11-Apr-2026
HD Live streaming from Space Station
objects crossing your sky now

METEOR 2-17 DEB

Track METEOR 2-17 DEB now!
10-day predictions


NORAD ID: 28993
Int'l Code: 1988-005H
Perigee: 893.2 km
Apogee: 910.2 km
Inclination: 82.5 °
Period: 102.9 minutes
Semi major axis: 7272 km
RCS: 0.0011 m2 (small)
Launch date: January 30, 1988
Source: Commonwealth of Independent States (former USSR) (CIS)
Launch site: PLESETSK MISSILE AND SPACE COMPLEX (PKMTR)

Note: This is SATELLITE DEBRIS
Your satellite tracking list
Your tracking list is empty




NASA's NSSDC Master Catalog

Two Line Element Set (TLE):
1 28993U 88005H   26095.87898094  .00001097  00000-0  73830-3 0  9998
2 28993  82.5300 326.6757 0011726 123.1185 237.1111 13.99772683580234
Source of the keplerian elements: AFSPC